Regional Weather Roundup
Issued by NWS

Home | Current Version | Previous Version | Text Only | Print | Product List | Glossary Off
Versions: 1 2 3 4 5 6 7 8 9 10 11 12 13 14 15 16 17 18 19 20 21 22 23 24 25 26 27 28 29 30 31 32 33 34 35 36 37 38 39 40 41 42 43 44 45 46 47 48 49 50

000
ASUS43 KDMX 030307
RWRIA

WEATHER ROUNDUP FOR IOWA
NATIONAL WEATHER SERVICE DES MOINES IA
1000 PM CDT WED SEP 02 2015

NOTE: "FAIR" INDICATES FEW OR NO CLOUDS BELOW 12,000 FEET WITH NO
SIGNIFICANT WEATHER AND/OR OBSTRUCTIONS TO VISIBILITY.

* - THESE STATIONS ARE NOT NWS STATIONS...THUS NOT UNDER NWS
QUALITY CONTROL.  THEY ALSO DO NOT REPORT WEATHER SUCH
AS PRECIPITATION OR FOG.

IAZ001>003-012>014-020>022-031>034-043>046-030400-
   NORTHWEST IOWA

CITY           SKY/WX    TMP DP  RH WIND       PRES   REMARKS
CARROLL *      CLEAR     72  72 100 S5        29.90R
CHEROKEE *     CLEAR     73  72  94 E7        29.88R
DENISON *      CLEAR     77  72  83 S14       29.86S
LE MARS *      CLEAR     75  72  88 SE5       29.86R
ORANGE CITY *  CLEAR     73  72  94 CALM      29.87R
SHELDON *      CLEAR     72  70  94 SE5       29.87R
SIOUX CITY     CLEAR     75  71  87 SE8       29.84R
SPENCER        CLEAR     74  70  87 SE7       29.89R
STORM LAKE *   CLEAR     72  72 100 SE6       29.91R
$$

IAZ055>058-069>071-079>083-090>094-030400-
   SOUTHWEST IOWA

CITY           SKY/WX    TMP DP  RH WIND       PRES   REMARKS
ATLANTIC *     CLEAR     77  72  83 S5        29.91R
AUDUBON *      CLEAR     73  70  88 S6        29.92R
CLARINDA *     PTCLDY    77  72  83 S8        29.93R
COUNCIL BLFS * CLEAR     79  72  78 S10       29.89R HX  82
CRESTON *      CLEAR     73  72  94 S8        29.95R
LAMONI         CLOUDY    78  70  76 S7        29.95R HX  80
RED OAK *      CLEAR     77  72  83 S7        29.90R
SHENANDOAH *   CLEAR     79  70  73 S12G18    29.90R HX  81
$$

IAZ047>049-059>061-072>074-084-030400-
   CENTRAL IOWA

CITY           SKY/WX    TMP DP  RH WIND       PRES   REMARKS
AMES           CLEAR     73  69  87 SE6       29.92R
ANKENY *       CLEAR     77  72  83 S7        29.91S
CHARITON *     PTCLDY    75  70  83 S8        29.94S
DES MOINES     PTCLDY    77  70  79 S8        29.91S
GRINNELL*      PTCLDY    73  68  83 SE5       29.95R
KNOXVILLE *    PTCLDY    75  70  83 S7        29.93R
MARSHALLTOWN   CLEAR     74  69  85 S9        29.92S
PELLA *        PTCLDY    75  73  94 S5        29.94S
PERRY *          N/A     73  72  94 S7        29.90S
$$

IAZ004>006-015-016-023>025-035-036-030400-
   NORTH CENTRAL IOWA

CITY           SKY/WX    TMP DP  RH WIND       PRES   REMARKS
ALGONA *       CLEAR     75  72  88 S7        29.90R
CLARION *      CLEAR     73  70  88 S9        29.91R
ESTHERVILLE    CLEAR     71  69  93 S6        29.89R
FORT DODGE *   CLEAR     75  66  73 S5        29.91S
MASON CITY     CLEAR     71  69  93 S6        29.92R
FOREST CITY *  CLEAR     68  68 100 S3        29.91R
IOWA FALLS *     N/A     73  70  88 S7        29.93R
$$

IAZ007>011-017>019-026>030-037>042-050>054-066-030400-
   NORTHEAST IOWA

CITY           SKY/WX    TMP DP  RH WIND       PRES   REMARKS
CEDAR RAPIDS   CLEAR     72  71  97 S5        29.94R
CHARLES CITY * CLEAR     73  72  94 S6        29.92S
CLINTON *      CLEAR     73  70  88 S3        29.97S
DECORAH *      CLEAR     73  70  88 S8        29.92S
DUBUQUE        CLEAR     72  69  90 S8        29.95F
MONTICELLO *   CLEAR     70  68  94 S5        29.94S
OELWEIN *        N/A     72  70  94 S7        29.94S
WATERLOO       CLEAR     75  70  84 S8        29.91R
$$

IAZ064-065-067-068-078-030400-
   EAST CENTRAL IOWA

CITY           SKY/WX    TMP DP  RH WIND       PRES   REMARKS
DAVENPORT      CLEAR     74  69  85 S6        29.96R
IOWA CITY      CLEAR     74  70  87 CALM      29.95R
MT. PLEASANT * CLEAR     75  66  73 S6        29.95F
MUSCATINE *    CLEAR     75  70  83 S7        29.95S
QUAD CITIES    CLEAR     77  69  76 S6        29.95R
$$

IAZ062-063-075>077-085>089-095>099-030400-
   SOUTHEAST IOWA

CITY           SKY/WX    TMP DP  RH WIND       PRES   REMARKS
BURLINGTON     CLEAR     74  69  85 S6        29.96S
FAIRFIELD *    PTCLDY    75  68  78 S7        29.95S
FORT MADISON * CLEAR     75  70  83 S6        29.97S
KEOKUK *       PTCLDY    79  68  69 S7        29.96S HX  81
OSKALOOSA *      N/A     73  68  83 S5        29.94S
CENTERVILLE *  CLEAR     73  72  94 S7        29.97S
OTTUMWA        MOCLDY    76  71  85 S9        29.93R
WASHINGTON *     N/A    N/A N/A N/A MISG        N/A
$$

ABBREVIATIONS USED IN REMARKS
   TC - TEMPERATURES IN CELSIUS
  WCI - WIND CHILL INDEX
   HX - HEAT INDEX
  VSB - VISIBILITY
$$




USA.gov is the U.S. government's official web portal to all federal, state and local government web resources and services.